Weather History for Kefallinia, Greece

Change the Weather History Date:

Monday, September 2, 2013

  Actual Average Record
Temperature  
Mean Temperature 78 °F -  
Max Temperature 86 °F 77 °F 89 °F (2011)
Min Temperature 69 °F 66 °F 64 °F (2006)
Cooling Degree Days 12    
Growing Degree Days 28 (Base 50)    
Moisture  
Dew Point 64 °F    
Average Humidity 61    
Maximum Humidity 83    
Minimum Humidity 35    
Precipitation  
Precipitation 0.00 in - - ()
Sea Level Pressure  
Sea Level Pressure 30.04 in    
Wind  
Wind Speed 6 mph ()    
Max Wind Speed 14 mph    
Max Gust Speed -    
Visibility 6.2 miles    
Events      
Averages and records for this station are not official NWS values.
T = Trace of Precipitation, MM = Missing Value Source: Averaged Metar Reports

Daily Weather History Graph

Daily Weather History Graph

Search for Another Location

Airport:

Trip Planner

Search our weather history database for the weather conditions in past years. The results will help you decide how hot, cold, wet, or windy it might be!

Date:

Astronomy

Sep. 02, 2013 Rise Set
Actual Time 7:08 AM EEST 8:06 PM EEST
Civil Twilight 6:41 AM EEST 8:33 PM EEST
Nautical Twilight 6:09 AM EEST 9:04 PM EEST
Astronomical Twilight 5:36 AM EEST 9:37 PM EEST
Moon 4:10 AM EEST (9/2) 6:07 PM EEST (9/2)
Length of Visible Light 13h 51m
Length of Day
12h 57m
Waning Crescent, 9% of the Moon is Illuminated
Sep 2
Waning Crescent
Sep 5
New
Sep 12
First Quarter
Sep 19
Full
Sep 27
Last Quarter

Hourly Weather History & Observations

Time (EEST) Temp. Heat Index Dew Point Humidity Pressure Visibility Wind Dir Wind Speed Gust Speed Precip Events Conditions
12:50 AM 75.2 °F - 62.6 °F 65% 30.04 in 6.2 mi NNW 5.8 mph - N/A   Scattered Clouds
1:50 AM 75.2 °F - 64.4 °F 69% 30.04 in 6.2 mi North 4.6 mph - N/A   Scattered Clouds
2:50 AM 73.4 °F - 64.4 °F 73% 30.01 in 6.2 mi Calm Calm - N/A   Scattered Clouds
3:50 AM 73.4 °F - 62.6 °F 69% 30.01 in 6.2 mi Variable 3.5 mph - N/A   Scattered Clouds
4:50 AM 71.6 °F - 66.2 °F 83% 30.01 in 6.2 mi Calm Calm - N/A   Partly Cloudy
5:50 AM 69.8 °F - 59.0 °F 68% 30.01 in 6.2 mi Variable 3.5 mph - N/A   Partly Cloudy
6:50 AM 73.4 °F - 64.4 °F 73% 30.01 in 6.2 mi Variable 3.5 mph - N/A   Partly Cloudy
7:50 AM 73.4 °F - 64.4 °F 73% 30.01 in 6.2 mi NNW 4.6 mph - N/A   Scattered Clouds
8:50 AM 77.0 °F - 68.0 °F 74% 30.04 in 6.2 mi NW 6.9 mph - N/A   Scattered Clouds
9:50 AM 78.8 °F - 68.0 °F 69% 30.04 in 6.2 mi NW 10.4 mph - N/A   Scattered Clouds
10:50 AM 82.4 °F 84.6 °F 66.2 °F 58% 30.06 in 6.2 mi NNW 9.2 mph - N/A   Scattered Clouds
11:50 AM 82.4 °F 84.6 °F 66.2 °F 58% 30.06 in 6.2 mi NW 10.4 mph - N/A   Partly Cloudy
12:50 PM 86.0 °F 87.3 °F 64.4 °F 48% 30.06 in 6.2 mi NW 9.2 mph - N/A   Scattered Clouds
1:50 PM 86.0 °F 86.6 °F 62.6 °F 45% 30.09 in 6.2 mi NNW 10.4 mph - N/A   Scattered Clouds
2:50 PM 86.0 °F 84.5 °F 55.4 °F 35% 30.06 in 6.2 mi NNW 10.4 mph - N/A   Mostly Cloudy
3:50 PM 86.0 °F 86.1 °F 60.8 °F 43% 30.06 in 6.2 mi NNW 10.4 mph - N/A   Mostly Cloudy
4:50 PM 84.2 °F 83.5 °F 57.2 °F 40% 30.06 in 6.2 mi WNW 10.4 mph - N/A   Mostly Cloudy
5:50 PM 84.2 °F 85.0 °F 62.6 °F 48% 30.04 in 6.2 mi West 10.4 mph - N/A   Scattered Clouds
6:50 PM 82.4 °F 83.9 °F 64.4 °F 54% 30.04 in 6.2 mi NNW 10.4 mph - N/A   Scattered Clouds
7:50 PM 78.8 °F - 64.4 °F 61% 30.04 in 6.2 mi NNW 12.7 mph - N/A   Partly Cloudy
8:50 PM 77.0 °F - 66.2 °F 69% 30.06 in 6.2 mi NNW 13.8 mph - N/A   Partly Cloudy